Location: Clyde
(45.1830°S, 169.3170°E)
Time: 17:28:04
(UTC+13:00)

IRAS Rocket - Pass Details

Date: 24 January 2019
Orbit: 848 x 877 km, 100.1° (Epoch: 19 February)

Event Time Altitude Azimuth Distance (km) Brightness Sun altitude
Rises 23:28:48 0° 162° (SSE) 3,494 7.9 -17.6°
Reaches altitude 10° 23:31:15 10° 158° (SSE) 2,545 7.1 -17.8°
Maximum altitude 23:36:52 63° 77° (ENE) 969 4.3 -18.4°
Enters shadow 23:39:49 28° 4° (N) 1,570 5.1 -18.7°
